Colorado Springs, CO

8:10 AM MST on January 23, 2018 (GMT -0700)
City Of Colorado Springs Municipal

Weather History for KCOS - November, 2013

Change the Weather History Date:

Saturday, November 2, 2013

  Actual Average Record
Temperature  
Mean Temperature 42 °F 44 °F  
Max Temperature 59 °F 57 °F 76 °F (1941)
Min Temperature 24 °F 30 °F -8 °F (1951)
Degree Days  
Heating Degree Days 23 21  
Month to date heating degree days 45 42  
Since 1 July heating degree days 640 716  
Cooling Degree Days 0 0  
Month to date cooling degree days 0 0  
Year to date cooling degree days 694 455  
Moisture  
Dew Point 23 °F    
Average Humidity 50    
Maximum Humidity 81    
Minimum Humidity 19    
Precipitation  
Precipitation 0.00 in 0.01 in 0.16 in (1990)
Month to date precipitation 0.00 0.03  
Year to date precipitation 18.88 15.83  
Snow  
Snow 0.00 in 0.10 in 2.50 in (1911)
Month to date snowfall 0.0 0.2  
Since 1 July snowfall 0.2 3.3  
Since 1 September snowfall 0.2 3.3  
Snow Depth 0.00 in    
Sea Level Pressure  
Sea Level Pressure 30.13 in    
Wind  
Wind Speed 6 mph (ESE)    
Max Wind Speed 15 mph    
Max Gust Speed 21 mph    
Visibility 10 miles    
Events      
T = Trace of Precipitation, MM = Missing Value Source: NWS Daily Summary

Daily Weather History Graph

Daily Weather History Graph

Search for Another Location

Airport or City:

Trip Planner

Search our weather history database for the weather conditions in past years. The results will help you decide how hot, cold, wet, or windy it might be!

Date:

Astronomy

Nov. 02, 2013 Rise Set
Actual Time 7:27 AM MDT 5:56 PM MDT
Civil Twilight 6:59 AM MDT 6:24 PM MDT
Nautical Twilight 6:28 AM MDT 6:56 PM MDT
Astronomical Twilight 5:56 AM MDT 7:27 PM MDT
Moon 6:27 AM MDT (11/2) 5:29 PM MDT (11/2)
Length of Visible Light 11h 25m
Length of Day
10h 29m
Waning Crescent, 1% of the Moon is Illuminated
Nov 2
Waning Crescent
Nov 3
New
Nov 9
First Quarter
Nov 17
Full
Nov 25
Last Quarter

Hourly Weather History & Observations

Time (MDT) Temp. Windchill Dew Point Humidity Pressure Visibility Wind Dir Wind Speed Gust Speed Precip Events Conditions
12:54 AM 34.0 °F 31.0 °F 25.0 °F 70% 30.26 in 10.0 mi SE 3.5 mph - N/A   Clear
1:54 AM 33.1 °F - 24.1 °F 70% 30.25 in 10.0 mi Calm Calm - N/A   Clear
2:54 AM 32.0 °F 28.7 °F 23.0 °F 69% 30.27 in 10.0 mi East 3.5 mph - N/A   Clear
3:54 AM 27.0 °F 18.7 °F 21.9 °F 81% 30.27 in 10.0 mi NE 8.1 mph - N/A   Clear
4:54 AM 26.1 °F 16.2 °F 21.0 °F 81% 30.28 in 10.0 mi NNE 10.4 mph - N/A   Clear
5:54 AM 27.0 °F 18.7 °F 21.9 °F 81% 30.29 in 10.0 mi North 8.1 mph - N/A   Clear
6:54 AM 27.0 °F 21.6 °F 21.0 °F 78% 30.30 in 10.0 mi NNE 4.6 mph - N/A   Clear
7:54 AM 28.9 °F - 23.0 °F 78% 30.30 in 10.0 mi Calm Calm - N/A   Clear
8:54 AM 37.9 °F - 28.9 °F 70% 30.27 in 10.0 mi Calm Calm - N/A   Clear
9:54 AM 42.1 °F - 28.0 °F 58% 30.25 in 10.0 mi Calm Calm - N/A   Clear
10:54 AM 46.0 °F 43.1 °F 26.1 °F 46% 30.21 in 10.0 mi SSE 5.8 mph - N/A   Clear
11:54 AM 48.0 °F - 25.0 °F 41% 30.18 in 10.0 mi SE 4.6 mph - N/A   Clear
12:54 PM 52.0 °F - 24.1 °F 34% 30.12 in 10.0 mi South 6.9 mph - N/A   Clear
1:54 PM 57.0 °F - 19.9 °F 24% 30.05 in 10.0 mi South 11.5 mph - N/A   Clear
2:54 PM 57.9 °F - 16.0 °F 19% 30.01 in 10.0 mi SSE 11.5 mph - N/A   Clear
3:54 PM 57.0 °F - 18.0 °F 22% 30.02 in 10.0 mi SSE 13.8 mph - N/A   Clear
4:54 PM 55.9 °F - 21.0 °F 26% 30.02 in 10.0 mi SSE 9.2 mph - N/A   Clear
5:54 PM 50.0 °F - 21.9 °F 33% 30.02 in 10.0 mi SE 6.9 mph - N/A   Clear
6:54 PM 46.9 °F - 21.9 °F 37% 30.03 in 10.0 mi SE 5.8 mph - N/A   Clear
7:54 PM 45.0 °F 41.8 °F 23.0 °F 42% 30.01 in 10.0 mi ESE 5.8 mph - N/A   Clear
8:54 PM 42.1 °F 38.4 °F 21.9 °F 45% 29.95 in 10.0 mi ENE 5.8 mph - N/A   Clear
9:54 PM 36.0 °F 30.3 °F 21.9 °F 57% 29.94 in 10.0 mi NNE 6.9 mph - N/A   Scattered Clouds
10:54 PM 36.0 °F 30.3 °F 21.9 °F 57% 29.89 in 10.0 mi ENE 6.9 mph - N/A   Mostly Cloudy
11:54 PM 37.9 °F 31.5 °F 21.9 °F 53% 29.84 in 10.0 mi ENE 9.2 mph - N/A   Mostly Cloudy